Location: Jackson Park
(37.2862°N, 79.9123°W)
Time: 14:58:43
(UTC+00:00)

Vanguard 1 Rocket - Pass Details

Date: 18 May 2026
Orbit: 656 x 4211 km, 34.3° (Epoch: 8 June)

Event Time Altitude Azimuth Distance (km) Brightness Sun altitude
Rises 18:22:50 0° 222° (SW) 3,353 10.6 67.2°
Reaches altitude 10° 18:25:01 10° 213° (SSW) 2,630 10.3 66.9°
Maximum altitude 18:30:46 39° 146° (SE) 1,858 9.6 66.0°
Drops below altitude 10° 18:40:45 10° 83° (E) 4,576 10.9 64.5°
Sets 18:45:54 0° 77° (ENE) 6,205 11.4 63.7°
